Вернуться в каталог

STARLINK-37263

АктивенСвязьVLEO
NORAD 68544·PAYLOAD·🇺🇸 United States

Запущен Apr 2, 2026 с Cape Canaveral Space Force Station

Loading…

Ближайшие Пролёты (ближайшие 24 часа)

TLE

СвежийSource: CelesTrak SupGP

Эпоха: Sep 15, 2026, 03:23 UTC

1 68544C 26070C   26258.14145833 -.00048769  00000+0 -14411-2 0  2580
2 68544  53.1586 198.9903 0001389  82.7843 206.7740 15.34410701    12

Отслеживайте STARLINK-37263 в реальном времени с AllMySat

Download on the App Store